Location: Wapato
(46.4478°N, 120.4212°W)
Time: 23:34:39
(UTC+00:00)

S-56A Canister/Altair - Pass Details

Date: 18 May 2026
Orbit: 633 x 2484 km, 38.9° (Epoch: 7 June)

Event Time Altitude Azimuth Distance (km) Brightness Sun altitude
Rises 06:39:50 0° 261° (W) 2,921 10.7 -21.6°
Reaches altitude 10° 06:42:15 10° 250° (WSW) 2,014 9.7 -21.8°
Enters shadow 06:43:46 19° 236° (SW) 1,539 8.9 -21.9°
